Terug naar catalogus

SL-8 DEB

ActiefUNKNOWN
NORAD 9016·DEBRIS·🇷🇺 Russia

Gelanceerd Jul 8, 1976 vanaf Plesetsk Cosmodrome

Loading…

Volgende Passages (komende 24 uur)

TLE

VersSource: Space-Track

Epoch: Sep 14, 2026, 06:40 UTC

1 09016U 76067C   26257.27819544 -.00000033  00000-0  79574-4 0  9997
2 09016  65.8673 132.6383 0705795 222.3895 238.1074 12.32731274258432

Volg SL-8 DEB in realtime met AllMySat

Download on the App Store